Voltar ao catálogo

STARLINK-36164

AtivoComunicaçõesVLEO
NORAD 67127·PAYLOAD·🇺🇸 United States

Lançado Dec 15, 2025 de Cape Canaveral Space Force Station

Loading…

Próximas Passagens (próximas 24 horas)

TLE

AtualizadoSource: CelesTrak SupGP

Época: Sep 14, 2026, 20:53 UTC

1 67127C 25299AB  26257.87062500  .00001859  00000+0  67312-4 0  2572
2 67127  42.9993 180.2935 0001121 261.4836  55.7356 15.27584460    18

Acompanhe STARLINK-36164 em tempo real com AllMySat

Download on the App Store